Regional Weather Roundup
Issued by NWS

Home | Current Version | Previous Version | Graphics & Text | Print | Product List | Glossary Off
Versions: 1 2 3 4 5 6 7 8 9 10 11 12 13 14 15 16 17 18 19 20 21 22 23 24 25 26 27 28 29 30 31 32 33 34 35 36 37 38 39 40 41 42 43 44 45 46 47 48 49 50

000
ASUS45 KBOU 251210
RWRCO

WEATHER ROUNDUP FOR COLORADO
NATIONAL WEATHER SERVICE DENVER/BOULDER CO
600 AM MDT FRI MAY 25 2018

NOTE: "FAIR" INDICATES FEW OR NO CLOUDS BELOW 12000 FEET WITH NO
SIGNIFICANT WEATHER AND/OR OBSTRUCTIONS TO VISIBILITY.

COZ001>005-013-030-031-251300-
...NORTHWEST COLORADO...

CITY           SKY/WX    TMP DP  RH WIND       PRES   REMARKS
CRAIG          FAIR      35  32  88 CALM      30.19S
HAYDEN         FAIR      42  34  73 E12       30.22R
MEEKER         FAIR      43  32  65 E6        30.20R
RANGELY        FAIR      52  30  43 SE9       30.10S
RABBIT EARS PA FAIR      46  23  39 SW6       30.44R
STEAMBOAT SPGS FAIR      38  33  81 CALM      30.23S
WALDEN         FAIR      36  28  75 SE5       30.32S
$$

COZ006>008-011-251300-
...WEST CENTRAL VALLEYS...

CITY           SKY/WX    TMP DP  RH WIND       PRES   REMARKS
GRAND JUNCTION FAIR      55  27  34 SE10      30.07F
MONTROSE       FAIR      49  22  34 SE6       30.17S
EAGLE          FAIR      39  28  64 CALM      30.29R
RIFLE          FAIR      46  28  49 VRB3      30.17R
DELTA          FAIR      54  28  35 NE10      30.14S
NUCLA          FAIR      50  16  25 E10       30.21R
$$

COZ017>023-064>068-251300-
...SOUTHWEST COLORADO...

CITY           SKY/WX    TMP DP  RH WIND       PRES   REMARKS
DURANGO        FAIR      43  19  38 SE3       30.24R
CORTEZ         FAIR      47  18  31 NE9       30.20R
PAGOSA SPRINGS FAIR      38  10  30 CALM      30.29S
TELLURIDE      FAIR      45  17  33 SE6       30.38F
WOLF CREEK PAS FAIR      43   3  19 SW7       30.59R
$$

COZ009-010-012-014-032>034-037-058>063-251300-
...CENTRAL COLORADO...

CITY           SKY/WX    TMP DP  RH WIND       PRES   REMARKS
ASPEN          FAIR      40  26  57 CALM      30.28R
BUENA VISTA    FAIR      42  25  51 NW6       30.32S
COPPER MTN     FAIR      45  18  33 W10       30.53S
BERTHOUD PASS  FAIR      37  28  70 W21       30.55S
COTTONWOOD PAS FAIR      55  23  28 CALM      30.41S
GUNNISON       FAIR      35  25  66 CALM      30.35R
GRANBY         FAIR      34  31  87 CALM      30.35R
KREMMLING      FAIR      37  32  81 CALM      30.32S
LEADVILLE      FAIR      29  22  75 CALM      30.41S
MONARCH PASS   FAIR      41  18  38 MISG      30.64S
SALIDA         FAIR      48  27  42 W6        30.38R
SUNLIGHT       FAIR      45  18  33 S6        30.48S
WILKERSON PASS FAIR      45  25  45 W6        30.52S
$$

COZ069>075-251300-
...SAN LUIS VALLEY/SANGRE DE CRISTO MOUNTAINS...

CITY           SKY/WX    TMP DP  RH WIND       PRES   REMARKS
ALAMOSA        FAIR      35  26  69 E3        30.28
DEL NORTE      FAIR      45  13  27 W14       30.32R
LA VETA PASS   FAIR      46  14  27 SW17      30.54R
SAGUACHE       NOT AVBL
$$

COZ035-036-038>040-251300-
...NORTHERN COLORADO FRONT RANGE...

CITY           SKY/WX    TMP DP  RH WIND       PRES   REMARKS
DENVER INTL AP FAIR      57  38  48 SW12      30.10S
AURORA         PTCLDY    53  39  60 S7        30.13R
FRONT RANGE AP FAIR      61  40  45 SW12      30.12S
ERIE MUNI ARPT FAIR      48  43  84 CALM      30.15S
BOULDER MUN AP FAIR      55  46  71 SW3       30.11R
CENTENNIAL     FAIR      54  38  54 S3        30.14R
BROOMFIELD     FAIR      57  37  47 NW9       30.13S
FORT COLLINS   FAIR      53  45  74 CALM      30.10S HAZE
LONGMONT       FAIR      51  44  78 CALM      30.12R
$$

COZ041-046-047-076>085-087-088-251300-
...PIKES PEAK/PALMER DIVIDE AND SOUTHERN FOOTHILLS...

CITY           SKY/WX    TMP DP  RH WIND       PRES   REMARKS
COLO. SPRINGS  FAIR      52  39  61 N8        30.18S
A. F. ACADEMY  FAIR      45  37  73 N10       30.19F
SCHRIEVER AFB  NOT AVBL
CHEYENNE MTN   FAIR      60  33  35 NW3       30.17S
ELLICOTT       NOT AVBL
FALCON         NOT AVBL
FORT CARSON    FAIR      53  36  52 N12       30.14S
LIMON          FAIR      45  40  82 N5        30.12S
MONUMENT HILL  FAIR      48  34  57 SW8       30.23S
CANON CITY     CLEAR     61  37  41 W12G17    30.13S
WALSENBURG     FAIR      54  34  47 CALM      30.18R
TRINIDAD       FAIR      51  35  54 W14       30.16R
$$

COZ042>045-048>051-090-091-251300-
...NORTHEAST COLORADO...

CITY           SKY/WX    TMP DP  RH WIND       PRES   REMARKS
GREELEY ARPT   FAIR      51  47  86 NW6       30.08F
AKRON          FAIR      55  45  68 W12       30.06S
BURLINGTON     FAIR      49  46  90 W8        30.04S
WRAY           FAIR      52  46  82 W3        30.02R
YUMA           FAIR      52  45  76 S7        30.04R
STERLING       FAIR      50  48  93 SW6       30.03S
HOLYOKE        FAIR      59  50  72 S9        30.01R
FORT MORGAN    FAIR      51  43  74 W8        30.07S
$$

COZ086-089-092>099-251300-
...SOUTHEAST COLORADO...

CITY           SKY/WX    TMP DP  RH WIND       PRES   REMARKS
PUEBLO         FAIR      55  38  52 SW5       30.09S
LA JUNTA       FAIR      56  45  66 W12       30.05R
LAMAR          FAIR      50  44  80 MISG      29.99R
SPRINGFIELD      N/A     55  47  74 NW15      30.01R
$$



USA.gov is the U.S. government's official web portal to all federal, state and local government web resources and services.